Weather History for West Yellowstone, MT

Change the Weather History Date:

Friday, January 4, 2013

  Actual Average Record
Temperature  
Mean Temperature 2 °F -  
Max Temperature 19 °F 19 °F 32 °F (2012)
Min Temperature -16 °F -2 °F -16 °F (2013)
Degree Days  
Heating Degree Days 64    
Moisture  
Dew Point -    
Average Humidity    
Maximum Humidity    
Minimum Humidity    
Precipitation  
Precipitation 0.00 in - - ()
Sea Level Pressure  
Sea Level Pressure 30.24 in    
Wind  
Wind Speed 1 mph (SE)    
Max Wind Speed 6 mph    
Max Gust Speed -    
Visibility 10 miles    
Events      
Averages and records for this station are not official NWS values.
T = Trace of Precipitation, MM = Missing Value Source: NWS Daily Summary

Daily Weather History Graph

Daily Weather History Graph

Search for Another Location

Airport:

Trip Planner

Search our weather history database for the weather conditions in past years. The results will help you decide how hot, cold, wet, or windy it might be!

Date:

Astronomy

Jan. 04, 2013 Rise Set
Actual Time 8:01 AM MST 4:57 PM MST
Civil Twilight 7:28 AM MST 5:31 PM MST
Nautical Twilight 6:51 AM MST 6:07 PM MST
Astronomical Twilight 6:16 AM MST 6:43 PM MST
Moon No Moon Rise 11:26 AM MST (1/4)
Length of Visible Light 10h 02m
Length of Day
8h 56m
Waning Gibbous, 54% of the Moon is Illuminated
Jan 4
Waning Gibbous
Jan 4
Last Quarter
Jan 11
New
Jan 18
First Quarter
Jan 26
Full

Hourly Weather History & Observations

Time (MST) Temp. Windchill Dew Point Humidity Pressure Visibility Wind Dir Wind Speed Gust Speed Precip Events Conditions
12:05 AM -13.0 °F - - N/A% 30.30 in 10.0 mi Calm Calm - N/A   Clear
12:25 AM -14.8 °F - - N/A% 30.29 in 10.0 mi Calm Calm - N/A   Clear
12:45 AM -16.6 °F - - N/A% 30.29 in 10.0 mi Calm Calm - N/A   Clear
1:05 AM -16.6 °F -26.8 °F - N/A% 30.29 in 10.0 mi SSW 3.5 mph - N/A   Clear
1:25 AM -16.6 °F - - N/A% 30.28 in 10.0 mi Calm Calm - N/A   Clear
1:45 AM -16.6 °F - - N/A% 30.28 in 10.0 mi Calm Calm - N/A   Clear
2:05 AM -16.6 °F - - N/A% 30.28 in 10.0 mi Calm Calm - N/A   Clear
9:25 AM -13.0 °F - - N/A% 30.30 in 8.0 mi Calm Calm - N/A   Mostly Cloudy
9:45 AM -9.4 °F - - N/A% 30.29 in 3.0 mi Calm Calm - N/A   Partly Cloudy
10:05 AM -2.2 °F - - N/A% 30.30 in 10.0 mi Calm Calm - N/A   Clear
10:25 AM -2.2 °F - - N/A% 30.29 in 10.0 mi Calm Calm - N/A   Clear
10:45 AM -0.4 °F - - N/A% 30.29 in 10.0 mi Calm Calm - N/A   Clear
11:05 AM 1.4 °F - - N/A% 30.28 in 10.0 mi Calm Calm - N/A   Clear
11:25 AM 3.2 °F - - N/A% 30.27 in 10.0 mi Calm Calm - N/A   Clear
11:45 AM 5.0 °F - - N/A% 30.27 in 10.0 mi Calm Calm - N/A   Clear
12:05 PM 6.8 °F -0.1 °F - N/A% 30.26 in 10.0 mi NE 3.5 mph - N/A   Clear
12:25 PM 8.6 °F - - N/A% 30.25 in 10.0 mi Calm Calm - N/A   Clear
12:45 PM 10.4 °F - - N/A% 30.24 in 10.0 mi Calm Calm - N/A   Clear
1:05 PM 12.2 °F - - N/A% 30.22 in 10.0 mi Calm Calm - N/A   Clear
1:25 PM 14.0 °F - - N/A% 30.21 in 10.0 mi Calm Calm - N/A   Clear
1:45 PM 14.0 °F 5.1 °F - N/A% 30.20 in 10.0 mi NE 5.8 mph - N/A   Clear
2:05 PM 14.0 °F 5.1 °F - N/A% 30.20 in 10.0 mi NE 5.8 mph - N/A   Clear
2:25 PM 15.8 °F 10.2 °F - N/A% 30.19 in 10.0 mi NNE 3.5 mph - N/A   Clear
2:45 PM 17.6 °F - - N/A% 30.19 in 10.0 mi Calm Calm - N/A   Clear
3:05 PM 17.6 °F - - N/A% 30.19 in 10.0 mi Calm Calm - N/A   Clear
3:25 PM 19.4 °F - - N/A% 30.20 in 10.0 mi Calm Calm - N/A   Clear
4:05 PM 19.4 °F - - N/A% 30.22 in 10.0 mi Calm Calm - N/A   Clear
4:25 PM 15.8 °F - - N/A% 30.21 in 10.0 mi Calm Calm - N/A   Clear
4:45 PM 14.0 °F - - N/A% 30.21 in 10.0 mi Calm Calm - N/A   Clear
5:05 PM 8.6 °F 2.0 °F - N/A% 30.22 in 10.0 mi WNW 3.5 mph - N/A   Clear
5:25 PM 6.8 °F - - N/A% 30.21 in 10.0 mi Calm Calm - N/A   Clear
5:45 PM 5.0 °F - - N/A% 30.22 in 10.0 mi Calm Calm - N/A   Clear
6:05 PM 1.4 °F - - N/A% 30.21 in 10.0 mi Calm Calm - N/A   Clear
6:25 PM -0.4 °F - - N/A% 30.22 in 10.0 mi Calm Calm - N/A   Clear
6:45 PM -0.4 °F - - N/A% 30.22 in 10.0 mi Calm Calm - N/A   Clear
7:05 PM -2.2 °F -10.4 °F - N/A% 30.22 in 10.0 mi South 3.5 mph - N/A   Clear
7:25 PM -4.0 °F - - N/A% 30.23 in 10.0 mi Calm Calm - N/A   Clear
7:45 PM -5.8 °F - - N/A% 30.22 in 10.0 mi Calm Calm - N/A   Clear
8:25 PM -7.6 °F - - N/A% 30.23 in 10.0 mi Calm Calm - N/A   Clear
8:45 PM -7.6 °F - - N/A% 30.23 in 10.0 mi Calm Calm - N/A   Clear
9:05 PM -9.4 °F - - N/A% 30.23 in 10.0 mi Calm Calm - N/A   Clear
9:25 PM -9.4 °F - - N/A% 30.23 in 10.0 mi Calm Calm - N/A   Clear
9:45 PM -11.2 °F -23.0 °F - N/A% 30.23 in 10.0 mi SSW 4.6 mph - N/A   Clear
10:05 PM -13.0 °F - - N/A% 30.23 in 10.0 mi Calm Calm - N/A   Clear
10:25 PM -13.0 °F - - N/A% 30.24 in 10.0 mi Calm Calm - N/A   Clear
10:45 PM -13.0 °F - - N/A% 30.24 in 10.0 mi Calm Calm - N/A   Clear
11:05 PM -13.0 °F -22.7 °F - N/A% 30.24 in 10.0 mi WSW 3.5 mph - N/A   Clear
11:25 PM -14.8 °F - - N/A% 30.24 in 10.0 mi Calm Calm - N/A   Clear
11:45 PM -16.6 °F -26.8 °F - N/A% 30.24 in 10.0 mi SE 3.5 mph - N/A   Clear